Time,TemperatureF,DewpointF,PressureIn,WindDirection,WindDirectionDegrees,WindSpeedMPH,WindSpeedGustMPH,Humidity,HourlyPrecipIn,Conditions,Clouds,dailyrainin,SoftwareType,DateUTC
2013-06-19 00:12:00,64.2,63.6,29.58,NE,45,0.0,-999.0,98,-99.99,,,0.00,Acu-Link.com,2013-06-19 04:12:00,
2013-06-19 00:27:00,64.0,63.4,29.58,ESE,112,0.0,-999.0,98,-99.99,,,0.00,Acu-Link.com,2013-06-19 04:27:00,
2013-06-19 00:42:00,63.9,63.3,29.58,ENE,67,4.2,-999.0,98,-99.99,,,0.00,Acu-Link.com,2013-06-19 04:42:00,
2013-06-19 00:57:00,63.5,62.9,29.58,ESE,112,1.7,-999.0,98,-99.99,,,0.00,Acu-Link.com,2013-06-19 04:57:00,
2013-06-19 01:12:00,63.5,62.9,29.59,SE,135,1.7,-999.0,98,-99.99,,,0.00,Acu-Link.com,2013-06-19 05:12:00,
2013-06-19 01:27:00,63.5,62.9,29.59,WSW,247,1.7,-999.0,98,-99.99,,,0.00,Acu-Link.com,2013-06-19 05:27:00,
2013-06-19 01:42:00,63.5,62.9,29.60,ENE,67,2.7,-999.0,98,-99.99,,,0.00,Acu-Link.com,2013-06-19 05:42:00,
2013-06-19 01:57:00,63.5,62.9,29.59,East,90,0.0,-999.0,98,-99.99,,,0.00,Acu-Link.com,2013-06-19 05:57:00,
2013-06-19 02:12:00,63.3,62.7,29.59,SE,135,0.0,-999.0,98,-99.99,,,0.00,Acu-Link.com,2013-06-19 06:12:00,
2013-06-19 02:28:00,63.3,62.7,29.59,SSE,157,0.0,-999.0,98,-99.99,,,0.00,Acu-Link.com,2013-06-19 06:28:00,
2013-06-19 02:43:00,63.3,62.7,29.59,NNE,22,0.0,-999.0,98,-99.99,,,0.00,Acu-Link.com,2013-06-19 06:43:00,
2013-06-19 02:58:00,63.3,62.7,29.60,SSE,157,0.0,-999.0,98,-99.99,,,0.00,Acu-Link.com,2013-06-19 06:58:00,
2013-06-19 03:13:00,63.1,62.5,29.60,NE,45,0.0,-999.0,98,-99.99,,,0.00,Acu-Link.com,2013-06-19 07:13:00,
2013-06-19 03:28:00,62.6,62.0,29.60,SSE,157,3.2,-999.0,98,-99.99,,,0.00,Acu-Link.com,2013-06-19 07:28:00,
2013-06-19 03:43:00,62.1,61.5,29.60,NE,45,2.7,-999.0,98,-99.99,,,0.00,Acu-Link.com,2013-06-19 07:43:00,
2013-06-19 03:58:00,61.3,60.7,29.61,NNW,337,0.0,-999.0,98,-99.99,,,0.00,Acu-Link.com,2013-06-19 07:58:00,
2013-06-19 04:13:00,61.3,60.7,29.62,ESE,112,2.7,-999.0,98,-99.99,,,0.00,Acu-Link.com,2013-06-19 08:13:00,
2013-06-19 04:29:00,60.8,60.2,29.62,NNE,22,0.0,-999.0,98,-99.99,,,0.00,Acu-Link.com,2013-06-19 08:29:00,
2013-06-19 04:44:00,60.4,59.8,29.63,South,180,1.1,-999.0,98,-99.99,,,0.00,Acu-Link.com,2013-06-19 08:44:00,
2013-06-19 04:59:00,59.7,59.1,29.62,East,90,0.0,-999.0,98,-99.99,,,0.00,Acu-Link.com,2013-06-19 08:59:00,
2013-06-19 05:14:00,59.2,58.6,29.63,ESE,112,0.0,-999.0,98,-99.99,,,0.00,Acu-Link.com,2013-06-19 09:14:00,
2013-06-19 05:29:00,58.5,57.9,29.64,NE,45,3.7,-999.0,98,-99.99,,,0.00,Acu-Link.com,2013-06-19 09:29:00,
2013-06-19 05:44:00,58.5,57.9,29.63,NE,45,2.2,-999.0,98,-99.99,,,0.00,Acu-Link.com,2013-06-19 09:44:00,
2013-06-19 05:59:00,58.3,57.7,29.64,WSW,247,0.0,-999.0,98,-99.99,,,0.00,Acu-Link.com,2013-06-19 09:59:00,
2013-06-19 06:14:00,58.5,57.9,29.64,ESE,112,1.1,-999.0,98,-99.99,,,0.00,Acu-Link.com,2013-06-19 10:14:00,
2013-06-19 06:29:00,58.8,58.2,29.64,NE,45,0.0,-999.0,98,-99.99,,,0.00,Acu-Link.com,2013-06-19 10:29:00,
2013-06-19 06:44:00,59.5,58.9,29.65,West,270,0.0,-999.0,98,-99.99,,,0.00,Acu-Link.com,2013-06-19 10:44:00,
2013-06-19 07:00:00,60.1,59.5,29.66,NE,45,0.0,-999.0,98,-99.99,,,0.00,Acu-Link.com,2013-06-19 11:00:00,
2013-06-19 07:15:00,60.4,59.8,29.68,ESE,112,0.0,-999.0,98,-99.99,,,0.00,Acu-Link.com,2013-06-19 11:15:00,
2013-06-19 07:30:00,61.3,60.7,29.69,NE,45,1.7,-999.0,98,-99.99,,,0.00,Acu-Link.com,2013-06-19 11:30:00,
2013-06-19 07:47:00,62.1,61.5,29.70,NE,45,2.7,-999.0,98,-99.99,,,0.00,Acu-Link.com,2013-06-19 11:47:00,
2013-06-19 08:14:00,63.3,62.7,29.71,NE,45,0.0,-999.0,98,-99.99,,,0.00,Acu-Link.com,2013-06-19 12:14:00,
2013-06-19 09:52:00,68.7,68.1,29.75,North,0,2.2,-999.0,98,-99.99,,,0.00,Acu-Link.com,2013-06-19 13:52:00,
2013-06-19 10:07:00,69.1,68.5,29.74,NE,45,1.7,-999.0,98,-99.99,,,0.00,Acu-Link.com,2013-06-19 14:07:00,
2013-06-19 10:22:00,70.0,69.4,29.75,NNE,22,4.7,-999.0,98,-99.99,,,0.00,Acu-Link.com,2013-06-19 14:22:00,
2013-06-19 10:38:00,72.1,71.5,29.75,West,270,2.2,-999.0,98,-99.99,,,0.00,Acu-Link.com,2013-06-19 14:38:00,
2013-06-19 10:53:00,72.0,71.4,29.76,SE,135,1.1,-999.0,98,-99.99,,,0.00,Acu-Link.com,2013-06-19 14:53:00,
2013-06-19 11:08:00,73.6,73.0,29.75,NE,45,1.7,-999.0,98,-99.99,,,0.00,Acu-Link.com,2013-06-19 15:08:00,
2013-06-19 11:24:00,74.5,73.9,29.76,SE,135,1.7,-999.0,98,-99.99,,,0.00,Acu-Link.com,2013-06-19 15:24:00,
2013-06-19 11:43:00,75.4,74.8,29.75,West,270,2.7,-999.0,98,-99.99,,,0.00,Acu-Link.com,2013-06-19 15:43:00,
2013-06-19 11:58:00,75.2,74.6,29.75,SSE,157,2.2,-999.0,98,-99.99,,,0.00,Acu-Link.com,2013-06-19 15:58:00,
2013-06-19 12:13:00,75.7,74.8,29.75,NE,45,2.7,-999.0,97,-99.99,,,0.00,Acu-Link.com,2013-06-19 16:13:00,
2013-06-19 12:29:00,76.5,75.6,29.75,SW,225,0.0,-999.0,97,-99.99,,,0.00,Acu-Link.com,2013-06-19 16:29:00,
2013-06-19 12:44:00,75.7,73.8,29.75,NE,45,3.2,-999.0,94,-99.99,,,0.00,Acu-Link.com,2013-06-19 16:44:00,
2013-06-19 12:59:00,74.3,73.7,29.75,SE,135,0.0,-999.0,98,-99.99,,,0.00,Acu-Link.com,2013-06-19 16:59:00,
2013-06-19 13:14:00,76.8,76.2,29.75,South,180,2.2,-999.0,98,-99.99,,,0.00,Acu-Link.com,2013-06-19 17:14:00,
2013-06-19 13:29:00,76.1,74.9,29.75,ENE,67,0.0,-999.0,96,-99.99,,,0.00,Acu-Link.com,2013-06-19 17:29:00,
2013-06-19 13:44:00,77.4,76.8,29.76,WSW,247,1.7,-999.0,98,-99.99,,,0.00,Acu-Link.com,2013-06-19 17:44:00,
2013-06-19 13:59:00,76.8,75.6,29.75,WNW,292,0.0,-999.0,96,-99.99,,,0.00,Acu-Link.com,2013-06-19 17:59:00,
2013-06-19 14:14:00,76.1,75.2,29.75,ESE,112,0.0,-999.0,97,-99.99,,,0.00,Acu-Link.com,2013-06-19 18:14:00,
2013-06-19 14:29:00,77.7,76.5,29.76,ENE,67,0.0,-999.0,96,-99.99,,,0.00,Acu-Link.com,2013-06-19 18:29:00,
2013-06-19 14:45:00,76.8,73.6,29.76,ESE,112,0.0,-999.0,90,-99.99,,,0.00,Acu-Link.com,2013-06-19 18:45:00,
2013-06-19 15:00:00,78.4,76.5,29.75,ESE,112,0.0,-999.0,94,-99.99,,,0.00,Acu-Link.com,2013-06-19 19:00:00,
2013-06-19 15:15:00,77.7,71.8,29.76,NNW,337,1.1,-999.0,82,-99.99,,,0.00,Acu-Link.com,2013-06-19 19:15:00,
2013-06-19 15:30:00,78.4,69.0,29.75,NNE,22,1.7,-999.0,73,-99.99,,,0.00,Acu-Link.com,2013-06-19 19:30:00,
2013-06-19 15:45:00,78.3,70.1,29.75,SSW,202,2.2,-999.0,76,-99.99,,,0.00,Acu-Link.com,2013-06-19 19:45:00,
2013-06-19 16:00:00,78.1,74.9,29.75,East,90,2.2,-999.0,90,-99.99,,,0.00,Acu-Link.com,2013-06-19 20:00:00,
2013-06-19 16:15:00,78.1,74.6,29.74,SSE,157,0.0,-999.0,89,-99.99,,,0.00,Acu-Link.com,2013-06-19 20:15:00,
2013-06-19 16:30:00,77.0,69.6,29.74,NNE,22,2.2,-999.0,78,-99.99,,,0.00,Acu-Link.com,2013-06-19 20:30:00,
2013-06-19 16:45:00,77.9,70.1,29.75,East,90,0.0,-999.0,77,-99.99,,,0.00,Acu-Link.com,2013-06-19 20:45:00,
2013-06-19 17:01:00,77.2,66.2,29.74,NE,45,0.0,-999.0,69,-99.99,,,0.00,Acu-Link.com,2013-06-19 21:01:00,
2013-06-19 17:16:00,79.3,75.4,29.74,SE,135,0.0,-999.0,88,-99.99,,,0.00,Acu-Link.com,2013-06-19 21:16:00,
2013-06-19 17:31:00,78.6,70.0,29.74,West,270,0.0,-999.0,75,-99.99,,,0.00,Acu-Link.com,2013-06-19 21:31:00,
2013-06-19 17:46:00,78.1,67.1,29.74,WSW,247,1.1,-999.0,69,-99.99,,,0.00,Acu-Link.com,2013-06-19 21:46:00,
2013-06-19 18:01:00,76.8,70.9,29.75,NE,45,2.7,-999.0,82,-99.99,,,0.00,Acu-Link.com,2013-06-19 22:01:00,
2013-06-19 18:16:00,75.0,72.8,29.75,ENE,67,0.0,-999.0,93,-99.99,,,0.00,Acu-Link.com,2013-06-19 22:16:00,
2013-06-19 18:31:00,74.5,73.9,29.74,WNW,292,0.0,-999.0,98,-99.99,,,0.00,Acu-Link.com,2013-06-19 22:31:00,
2013-06-19 18:46:00,74.1,73.5,29.75,SSE,157,0.0,-999.0,98,-99.99,,,0.00,Acu-Link.com,2013-06-19 22:46:00,
2013-06-19 19:01:00,73.8,73.2,29.75,SSW,202,2.2,-999.0,98,-99.99,,,0.00,Acu-Link.com,2013-06-19 23:01:00,
2013-06-19 19:16:00,73.2,72.6,29.74,SSW,202,0.0,-999.0,98,-99.99,,,0.00,Acu-Link.com,2013-06-19 23:16:00,
2013-06-19 19:32:00,72.3,71.7,29.76,WNW,292,0.0,-999.0,98,-99.99,,,0.00,Acu-Link.com,2013-06-19 23:32:00,
2013-06-19 19:47:00,71.2,70.6,29.77,West,270,0.0,-999.0,98,-99.99,,,0.00,Acu-Link.com,2013-06-19 23:47:00,
2013-06-19 20:02:00,70.0,69.4,29.77,West,270,0.0,-999.0,98,-99.99,,,0.00,Acu-Link.com,2013-06-20 00:02:00,
2013-06-19 20:17:00,68.4,67.8,29.77,NNW,337,0.0,-999.0,98,-99.99,,,0.00,Acu-Link.com,2013-06-20 00:17:00,
2013-06-19 20:32:00,66.7,66.1,29.77,North,0,0.0,-999.0,98,-99.99,,,0.00,Acu-Link.com,2013-06-20 00:32:00,
2013-06-19 20:47:00,65.3,64.7,29.78,North,0,0.0,-999.0,98,-99.99,,,0.00,Acu-Link.com,2013-06-20 00:47:00,
2013-06-19 21:02:00,64.2,63.6,29.78,West,270,0.0,-999.0,98,-99.99,,,0.00,Acu-Link.com,2013-06-20 01:02:00,
2013-06-19 21:17:00,63.1,62.5,29.80,NE,45,0.0,-999.0,98,-99.99,,,0.00,Acu-Link.com,2013-06-20 01:17:00,
2013-06-19 21:32:00,62.6,62.0,29.80,North,0,0.0,-999.0,98,-99.99,,,0.00,Acu-Link.com,2013-06-20 01:32:00,
2013-06-19 21:48:00,62.6,62.0,29.80,WNW,292,0.0,-999.0,98,-99.99,,,0.00,Acu-Link.com,2013-06-20 01:48:00,
2013-06-19 22:03:00,64.0,63.4,29.82,ESE,112,0.0,-999.0,98,-99.99,,,0.00,Acu-Link.com,2013-06-20 02:03:00,
2013-06-19 22:18:00,64.0,63.4,29.82,ESE,112,0.0,-999.0,98,-99.99,,,0.00,Acu-Link.com,2013-06-20 02:18:00,
2013-06-19 22:33:00,63.1,62.5,29.83,WSW,247,0.0,-999.0,98,-99.99,,,0.00,Acu-Link.com,2013-06-20 02:33:00,
2013-06-19 22:48:00,63.3,62.7,29.84,SSW,202,0.0,-999.0,98,-99.99,,,0.00,Acu-Link.com,2013-06-20 02:48:00,
2013-06-19 23:03:00,63.1,62.5,29.84,SSW,202,0.0,-999.0,98,-99.99,,,0.00,Acu-Link.com,2013-06-20 03:03:00,
2013-06-19 23:18:00,62.1,61.5,29.85,West,270,0.0,-999.0,98,-99.99,,,0.00,Acu-Link.com,2013-06-20 03:18:00,
2013-06-19 23:33:00,61.0,60.4,29.85,WNW,292,0.0,-999.0,98,-99.99,,,0.00,Acu-Link.com,2013-06-20 03:33:00,
2013-06-19 23:49:00,60.3,59.7,29.86,NW,315,0.0,-999.0,98,-99.99,,,0.00,Acu-Link.com,2013-06-20 03:49:00,